البصرة, العراق

10:45 PM AST on أعس×س 31, 2015 (GMT +0300)
Basrah International | | Change Station
CLOSE
Current Station
Airport
Location: Basrah,
Elevation: 7 ft
Nearby Weather Stations

Elev 7 ft 30.52 °N, 47.78 °E | Updated 45 minutes ago

Clear
صافية
102 °F
Feels Like 102 °F
N
5
ريح متغير ريح from جنوب شرقی

هذا اليوم
High -- | Low -- °F
--% Chance of Precip.
Yesterday
High -- | Low -- °F
Precip. -- في
5:24 AM 6:13 PM
الأحدب الأخير, 94% visible
الضغط 29.56 في
وضوح الرؤية -9999.0 أميال
سحابات
نقطة الندى 50 °F
الرطوبة 17%
Rainfall 0.00 في
عمق الثلج Not available.
الأشعة فوق البنفسجية Not available.
Pollen Not available.
جودة الهواء Not available.
Flu Activity Not available.
METAR ORMM 311900Z 13004KT CAVOK 39/10 Q1001 NOSIG
الضغط 29.56 في
وضوح الرؤية -9999.0 أميال
سحابات
نقطة الندى 50 °F
الرطوبة 17%
Rainfall 0.00 في
عمق الثلج Not available.
الأشعة فوق البنفسجية Not available.
Pollen Not available.
جودة الهواء Not available.
Flu Activity Not available.
METAR ORMM 311900Z 13004KT CAVOK 39/10 Q1001 NOSIG

10-Day Weather Forecast

×

Almanac

علم الفلك

Aug. 31, 2015 Rise Set
Actual Time
Civil Twilight
Nautical Twilight
Astronomical Twilight
قمر
Length Of Visible Light
طول الیوم
Tomorrow will be .
, % of the Moon is Illuminated

Today's Extremes

Country Highs Country Lows

Community

WunderPhotos

Upload Photos

1,851,346 photos uploaded!

WunderBlogs® & News

Nearby

جودة الهواء

  جودة الهواء AQ Index Pollutant
Not available.

عمق الثلج

Station Depth Elevation

Earthquake Activity

City Distance Mag. Time & Date
Minimum magnitude displayed is 2.5.

Coastal Water Temperatures

مكان درجات الحرارة

Stations

Nearby Weather Stations

Station Location الحرارة رياح باردة نقطة الندى الرطوبة ريح Precip. Elev تحديث Type